Regional Weather Roundup
Issued by NWS

Home | Current Version | Previous Version | Text Only | Print | Product List | Glossary On
Versions: 1 2 3 4 5 6 7 8 9 10 11 12 13 14 15 16 17 18 19 20 21 22 23 24 25 26 27 28 29 30 31 32 33 34 35 36 37 38 39 40 41 42 43 44 45 46 47 48 49 50
000
ASUS43 KLMK 300102
RWRKY
KENTUCKY REGIONAL WEATHER ROUNDUP
NATIONAL WEATHER SERVICE LOUISVILLE KY
900 PM EDT TUE JUL 29 2014

NOTE "FAIR" INDICATES FEW OR NO CLOUDS BELOW 12,000 FEET
WITH NO SIGNIFICANT WEATHER AND/OR OBSTRUCTIONS TO VISIBILITY.

KYZ001>023-026-027-061>063-070>075-300200-
WESTERN AND SOUTH CENTRAL KENTUCKY

CITY           SKY/WX    TMP DP  RH WIND       PRES   REMARKS
PADUCAH        CLEAR     70  58  65 SW3       30.07S
HENDERSON      CLEAR     70  57  64 W3        30.05F
OWENSBORO      CLEAR     72  57  58 W3        30.06F
HOPKINSVILLE   CLEAR     72  52  49 N5        30.07S
BOWLING GREEN  CLEAR     73  54  51 NW6       30.07S
GLASGOW        CLEAR     68  56  66 CALM      30.07S
$$

KYZ024-025-028>034-038-045-046-053-300200-
NORTH CENTRAL KENTUCKY

CITY           SKY/WX    TMP DP  RH WIND       PRES   REMARKS
LOUISVILLE/SDF PTCLDY    71  56  58 W7        30.05S
LOUISVILLE/LOU CLEAR     73  55  53 NW3       30.06R
FORT KNOX      PTCLDY    66  60  80 W5        30.06S
$$

KYZ035>037-039>044-047>052-055>060-089>105-300200-
NORTHEAST KENTUCKY

CITY           SKY/WX    TMP DP  RH WIND       PRES   REMARKS
LEXINGTON      CLEAR     68  54  60 CALM      30.08R
COVINGTON      PTCLDY    68  53  58 SW3       30.06R
FRANKFORT      CLEAR     65  58  78 CALM      30.06S
$$

KYZ054-064>069-076>088-106>120-300200-
SOUTHEAST KENTUCKY

CITY           SKY/WX    TMP DP  RH WIND       PRES   REMARKS
JACKSON        CLEAR     63  53  70 NW3       30.08S
LONDON         CLEAR     67  52  58 N3        30.09S
SOMERSET       CLEAR     64  52  63 CALM      30.09S
MIDDLESBORO    MOCLDY    64  57  77 CALM      30.09S
MONTICELLO     CLEAR     62  58  87 CALM      30.10S
$$




USA.gov is the U.S. government's official web portal to all federal, state and local government web resources and services.